EAGLET 1 (43790 NORAD) Tracking and Keplerian Element Data

This shows tracking and keplerian element data for the satellite.

Feedback or suggestion? Click here.




ElementValue
Catalog43790
NameEAGLET 1
Epoch Orbit533
Epoch Day10.49000362
Epoch Year2019
RAAN84.3027
Inclination97.7652
Eccentricity0.0014527
Argument of Perigee139.748
Mean Anonmoly220.482
Mean Motion14.95431546
Decay Rate3.83E-06
L11 43790U 18099AJ 19010.49000362 .00000383 00000-0 39867-4 0 9996
L22 43790 097.7652 084.3027 0014527 139.7480 220.4820 14.95431546005337

Live tracking and technical data element details for EAGLET 1 (NORAD 43790). EAGLET 1 can be tracked NOW for your location showing map with azimuth and elevation plus other details from your city location.

Track the satellite on the map from your city or location and see movement details for azimuth, elevation, latitude, longitude, range, height, and movement on the map or in text.







IsCatalogInMostPopularTable: catalog: 43790, numindb: 22
Update: records affected: 1



GetName: 43790 EAGLET 1

Hit Count: updated at: Thu, 17 Jan 2019 14:39:37 GMT